Αρχική σελίδα
METAR-TAF:

METAR-TAF

Αεροδρόμια :

Mountain View, Καλιφόρνια, Ηνωμένες Πολιτείες Αμερικής

γεωγραφικό πλάτος: 37-24-21N, γεωγραφικό μήκος: 122-02-53W, υψόμετρο: 10 μ

Παρών καιρός

Η αναφορά έγινε 46 λεπτά πριν, στις 17:56 UTC
Ήπιος άνεμος
Θερμοκρασία 9°C
Υγρασία 93%
Πίεση 1020 hPa
Ορατότητα: 3.2 χλμ
Νεφοσκεπής σε ύψος 500 πόδια
καπνός

METAR: KNUQ 181756Z 00000KT 2SM FU OVC005 09/08 A3012 RMK AO2 SLP203 T00940083 10100 20050 50001

Χρόνος: 10:42 (18:42 UTC)


TAF: λείπει

Μετεωρολογικές αναφορές και προγνώσεις για περισσότερα από 4000 αεροδρόμια (δελτία METAR και TAF).

Οι διαθέσιμοι σταθμοί απεικονίζονται στο χάρτη με κίτρινες και κόκκινες κουκκίδες.

Μετακινήστε το ποντίκι πάνω από τις κουκκίδες για να δείτε το όνομα του σταθμού.

Στη συνέχεια, κάντε κλικ για να δείτε τις μετεωρολογικές αναφορές και τις προγνώσεις καιρού.

Για να αλλάξετε το χάρτη: κάντε κλικ στα πράσινα κουμπιά με τον μαύρο σταυρό για να ζουμάρετε, στο πράσινο κουμπί με την παύλα για να αφαιρέσετε το ζουμ ή στα πράσινα βέλη για να αντιπαραβάλλετε χάρτες.


METAR-TAF: